GW1482 Weather Reports


time (UTC)temp
F
wind
direction
speed
knots
gust
knots
rain 1hr
in
rain 24hr
in
rain mn
in
humidity
%
barometer
mb
20260504045731 45 344 0.9 0.9 0.00 0.00 0.00 67 1001.3
20260504045152 44 53 0.9 1.7 0.00 0.00 0.00 70 1001.6
20260504044536 44 54 0.9 0.9 0.00 0.00 0.00 70 1001.3
20260504043915 44 54 0.9 0.9 0.00 0.00 0.00 69 1001.0
20260504042719 44 52 0.9 0.9 0.00 0.00 0.00 71 1001.3
20260504042142 44 57 0.9 0.9 0.00 0.00 0.00 69 1001.3
20260504041542 44 58 0.9 0.9 0.00 0.00 0.00 70 1001.3
20260504040949 44 61 1.7 1.7 0.00 0.00 0.00 69 1001.6
20260504035738 44 38 0.9 0.9 0.00 0.00 0.00 67 1001.3
20260504035142 44 51 0.9 0.9 0.00 0.00 0.00 68 1001.3
20260504033953 45 37 0.0 0.0 0.00 0.00 0.00 68 1001.3
20260504033342 45 46 0.9 0.9 0.00 0.00 0.00 67 1001.3
20260504032714 45 48 0.9 0.9 0.00 0.00 0.00 64 1001.3
20260504032125 45 53 0.9 0.9 0.00 0.00 0.00 65 1001.3
20260504031536 45 46 0.9 0.9 0.00 0.00 0.00 64 1001.3
20260504030952 45 52 0.9 0.9 0.00 0.00 0.00 65 1001.6
20260504030354 45 36 0.0 0.0 0.00 0.00 0.00 65 1001.3
20260504025115 46 32 0.0 0.0 0.00 0.00 0.00 65 1001.3
20260504024555 46 36 0.0 0.0 0.00 0.00 0.00 67 1001.3
20260504023317 47 30 0.0 0.9 0.00 0.00 0.00 65 1001.6
20260504022747 47 30 0.0 0.9 0.00 0.00 0.00 62 1001.3
20260504021538 47 32 0.0 0.0 0.00 0.00 0.00 63 1001.6
20260504020353 48 22 0.0 0.0 0.00 0.00 0.00 59 1001.3
20260504015734 48 21 0.0 0.0 0.00 0.00 0.00 64 1001.6
20260504015121 48 32 0.0 0.0 0.00 0.00 0.00 58 1001.6
20260504014530 48 32 0.0 0.0 0.00 0.00 0.00 57 1001.3
20260504013925 48 32 0.0 0.0 0.00 0.00 0.00 53 1001.6
20260504013334 48 32 0.0 0.0 0.00 0.00 0.00 50 1001.3
20260504012735 48 32 0.0 0.0 0.00 0.00 0.00 54 1001.0
20260504011522 48 32 0.0 0.0 0.00 0.00 0.00 50 1001.3
20260504010939 48 32 0.0 0.0 0.00 0.00 0.00 52 1001.3
20260504010354 48 32 0.0 0.0 0.00 0.00 0.00 49 1001.0
20260504005728 49 32 0.0 0.0 0.00 0.00 0.00 49 1001.0
20260504004531 49 32 0.0 0.0 0.00 0.00 0.00 53 1001.0
20260504003953 49 32 0.0 0.0 0.00 0.00 0.00 52 1001.0
20260504003337 49 15 0.0 0.0 0.00 0.00 0.00 50 1001.0
20260504002742 49 15 0.0 0.0 0.00 0.00 0.00 49 1001.0
20260504002127 50 14 0.0 0.0 0.00 0.00 0.00 48 1001.0
20260504001533 50 13 0.0 0.0 0.00 0.00 0.00 50 1001.0
20260504000928 50 19 0.0 0.0 0.00 0.00 0.00 47 1001.0
20260504000328 51 19 0.0 0.9 0.00 0.00 0.00 50 1001.0
20260503234521 51 19 0.0 0.0 0.00 0.00 0.00 42 1001.0
20260503231524 52 13 0.9 0.9 0.00 0.00 0.00 41 1001.0
20260503230953 52 19 0.0 0.0 0.00 0.00 0.00 46 1001.0
20260503230351 52 47 0.9 0.9 0.00 0.00 0.00 42 1000.6
20260503225724 52 13 0.0 0.0 0.00 0.00 0.00 43 1000.6
20260503225148 53 10 0.0 0.0 0.00 0.00 0.00 42 1001.0
20260503224527 54 9 0.0 0.0 0.00 0.00 0.00 38 1001.0
20260503223912 54 320 1.7 1.7 0.00 0.00 0.00 38 1001.3
20260503223351 54 352 0.9 1.7 0.00 0.00 0.00 42 1001.3
20260503222727 54 331 1.7 1.7 0.00 0.00 0.00 36 1001.0
20260503222144 54 26 0.0 0.0 0.00 0.00 0.00 36 1001.0
20260503221527 56 294 2.6 2.6 0.00 0.00 0.00 38 1001.3
20260503220909 56 316 0.9 1.7 0.00 0.00 0.00 36 1001.0
20260503220333 56 271 0.9 1.7 0.00 0.00 0.00 35 1001.0
20260503215723 57 310 2.6 2.6 0.00 0.00 0.00 34 1001.0
20260503215141 58 296 1.7 1.7 0.00 0.00 0.00 37 1001.0
20260503214519 58 6 0.0 0.0 0.00 0.00 0.00 37 1000.6
20260503213944 57 357 0.0 0.0 0.00 0.00 0.00 36 1001.0
20260503213328 56 298 1.7 1.7 0.00 0.00 0.00 36 1001.0
20260503212750 56 357 0.9 1.7 0.00 0.00 0.00 37 1001.0
20260503212128 57 2 0.9 0.9 0.00 0.00 0.00 35 1001.0
20260503211543 58 273 2.6 3.5 0.00 0.00 0.00 34 1001.0
20260503210933 57 200 2.6 3.5 0.00 0.00 0.00 34 1001.0
20260503210349 58 293 3.5 3.5 0.00 0.00 0.00 34 1001.3
20260503205719 58 51 0.9 0.9 0.00 0.00 0.00 34 1001.0
20260503203914 57 7 2.6 2.6 0.00 0.00 0.00 37 1001.3
20260503203343 56 280 1.7 2.6 0.00 0.00 0.00 38 1001.6
20260503202733 56 27 0.9 0.9 0.00 0.00 0.00 36 1001.3
20260503202127 56 332 1.7 1.7 0.00 0.00 0.00 37 1001.3
20260503201509 57 241 2.6 2.6 0.00 0.00 0.00 36 1001.6
20260503200953 58 347 2.6 3.5 0.00 0.00 0.00 36 1001.6
20260503200321 57 286 0.9 1.7 0.00 0.00 0.00 38 1002.0
20260503195119 55 285 0.9 1.7 0.00 0.00 0.00 36 1002.0
20260503194527 55 315 2.6 2.6 0.00 0.00 0.00 37 1002.3
20260503193935 54 349 1.7 1.7 0.00 0.00 0.00 35 1002.0
20260503193341 56 335 1.7 2.6 0.00 0.00 0.00 37 1002.7
20260503192753 55 15 0.9 1.7 0.00 0.00 0.00 38 1002.7
20260503192120 56 280 3.5 5.2 0.00 0.00 0.00 38 1002.3
20260503190909 54 309 1.7 1.7 0.00 0.00 0.00 38 1002.7
20260503185750 54 265 3.5 6.1 0.00 0.00 0.00 38 1002.7
20260503185141 54 332 0.9 1.7 0.00 0.00 0.00 36 1003.0
20260503184540 56 334 2.6 3.5 0.00 0.00 0.00 39 1002.7
20260503183353 55 12 0.9 1.7 0.00 0.00 0.00 43 1002.7
20260503182749 54 297 3.5 5.2 0.00 0.00 0.00 40 1002.7
20260503182146 53 350 1.7 3.5 0.00 0.00 0.00 43 1002.7
20260503181545 53 299 1.7 1.7 0.00 0.00 0.00 40 1002.7
20260503180335 54 44 0.9 0.9 0.00 0.00 0.00 41 1003.0
20260503175731 54 28 0.9 0.9 0.00 0.00 0.00 36 1003.3
20260503175123 55 41 0.9 0.9 0.00 0.00 0.00 37 1003.3
20260503174550 53 342 0.9 0.9 0.00 0.00 0.00 43 1003.3
20260503173918 50 126 2.6 3.5 0.00 0.00 0.00 40 1003.3
20260503173309 52 312 1.7 1.7 0.00 0.00 0.00 39 1003.3
20260503172730 53 306 0.9 1.7 0.00 0.00 0.00 41 1003.7
20260503172124 52 29 0.9 0.9 0.00 0.00 0.00 40 1003.7
20260503171538 52 358 0.9 1.7 0.00 0.00 0.00 45 1003.7
20260503170935 51 343 0.9 0.9 0.00 0.00 0.00 41 1003.7
20260503170347 52 45 0.9 0.9 0.00 0.00 0.00 39 1003.7
20260503150929 43 336 0.0 0.9 0.00 0.00 0.00 52 1004.4
20260503150317 43 20 0.0 0.9 0.00 0.00 0.00 53 1004.7
20260503130953 37 38 0.0 0.9 0.00 0.00 0.00 76 1004.0
20260503110340 29 47 0.9 0.9 0.00 0.00 0.00 96 1003.0
20260503081547 32 38 0.0 0.0 0.00 0.00 0.00 90 1001.6
20260503080949 32 34 0.0 0.0 0.00 0.00 0.00 90 1001.6
20260503072739 32 26 0.0 0.0 0.00 0.00 0.00 86 1001.3
20260503072130 33 32 0.0 0.0 0.00 0.00 0.00 86 1001.3
20260503071549 33 32 0.0 0.0 0.00 0.00 0.00 86 1001.3
20260503070936 33 31 0.0 0.0 0.00 0.00 0.00 86 1001.3
20260503070324 33 32 0.0 0.0 0.00 0.00 0.00 86 1001.3
20260503054554 36 9 0.0 0.0 0.00 0.00 0.00 81 1001.3
20260503053919 36 17 0.0 0.9 0.00 0.00 0.00 80 1001.3
20260503053347 36 354 0.9 0.9 0.00 0.00 0.00 81 1001.3
20260503052747 36 9 0.0 0.9 0.00 0.00 0.00 80 1001.3